Temp
-11 -11 -11 -11 -11 -11 -11 -11 -11 -11 -11 -11 -11 -12 -12 -12 -13 -13 -13 -13 -13 -13 -13 -13 -13 -14 -14 -13 -14 -14 -14 -14 -13 -13 -13 -12 -12 -12 -12 -12 -12 -12 -12
-11 -11 -10 -11 -11 -11 -11 -11 -11 -11 -11 -12 -11 -11 -12 -12 -13 -13 -13 -13 -13 -13 -13 -13 -13 -13 -13 -13 -13 -14 -14 -14 -13 -13 -13 -13 -13 -12 -12 -12 -12 -12 -12
-10 -10 -11 -11 -11 -11 -11 -11 -11 -11 -12 -12 -11 -12 -12 -12 -13 -13 -13 -13 -13 -13 -13 -13 -13 -13 -13 -13 -14 -14 -14 -14 -14 -13 -13 -13 -13 -12 -12 -12 -12 -12 -12
-10 -10 -11 -11 -11 -11 -11 -11 -11 -11 -12 -12 -12 -12 -12 -12 -13 -13 -13 -13 -13 -12 -12 -13 -13 -13 -13 -13 -14 -14 -14 -14 -14 -13 -13 -13 -13 -13 -13 -12 -12 -12 -12
-10 -11 -11 -10 -11 -11 -11 -11 -11 -11 -11 -12 -12 -12 -12 -12 -13 -13 -12 -12 -12 -12 -12 -12 -12 -13 -13 -13 -14 -14 -14 -14 -14 -14 -14 -13 -13 -13 -13 -12 -12 -12 -11
-11 -11 -10 -11 -11 -11 -11 -11 -11 -11 -11 -12 -12 -12 -12 -13 -13 -13 -13 -13 -12 -12 -12 -12 -12 -12 -13 -13 -13 -13 -13 -13 -13 -13 -13 -13 -13 -13 -13 -12 -12 -11 -11
-11 -10 -11 -11 -11 -11 -11 -11 -11 -11 -11 -12 -12 -12 -12 -12 -13 -13 -13 -13 -12 -12 -12 -12 -12 -12 -12 -12 -13 -13 -13 -13 -13 -13 -13 -13 -13 -13 -13 -12 -12 -12 -12
-10 -10 -11 -11 -11 -11 -11 -11 -11 -11 -11 -11 -11 -11 -12 -12 -13 -13 -13 -13 -13 -13 -12 -12 -12 -12 -12 -12 -12 -12 -12 -12 -13 -13 -13 -13 -13 -12 -12 -12 -12 -12 -12
-11 -10 -11 -11 -11 -11 -11 -11 -11 -11 -11 -11 -11 -11 -11 -12 -12 -12 -12 -12 -12 -13 -12 -12 -12 -12 -11 -11 -12 -12 -12 -12 -12 -12 -12 -12 -12 -12 -12 -13 -12 -12 -12
-10 -10 -11 -11 -11 -12 -11 -11 -11 -11 -11 -12 -12 -11 -11 -11 -12 -12 -12 -12 -11 -12 -12 -11 -12 -12 -11 -11 -11 -11 -12 -12 -11 -11 -11 -12 -12 -12 -12 -12 -13 -13 -13
-11 -11 -11 -11 -11 -11 -11 -11 -11 -11 -11 -11 -11 -11 -11 -11 -11 -11 -12 -12 -11 -12 -12 -12 -11 -11 -11 -11 -11 -11 -12 -12 -12 -12 -12 -12 -12 -12 -12 -12 -12 -12 -13
-11 -11 -11 -11 -11 -11 -11 -12 -12 -11 -12 -12 -11 -11 -11 -11 -11 -11 -11 -11 -11 -11 -11 -11 -11 -11 -11 -11 -11 -12 -11 -12 -12 -12 -12 -12 -12 -13 -13 -13 -13 -13 -13
-11 -11 -11 -12 -12 -11 -12 -12 -12 -12 -12 -11 -11 -11 -11 -11 -12 -11 -11 -11 -11 -11 -11 -11 -11 -11 -11 -11 -11 -11 -11 -12 -12 -13 -12 -12 -12 -12 -13 -13 -13 -13 -13
-11 -12 -12 -12 -12 -12 -11 -12 -13 -12 -12 -12 -11 -12 -11 -12 -12 -12 -11 -11 -11 -10 -11 -11 -11 -11 -11 -12 -12 -12 -11 -12 -12 -12 -12 -12 -13 -13 -13 -13 -13 -13 -13
-12 -12 -12 -12 -12 -12 -12 -12 -13 -13 -12 -12 -11 -11 -12 -12 -12 -12 -12 -11 -11 -11 -11 -11 -11 -12 -12 -13 -12 -12 -12 -13 -13 -13 -13 -13 -13 -12 -13 -13 -13 -13 -13
-12 -12 -12 -12 -12 -12 -12 -12 -12 -12 -12 -12 -11 -12 -13 -13 -13 -12 -12 -12 -12 -12 -12 -12 -11 -12 -12 -12 -13 -13 -13 -13 -14 -14 -13 -13 -13 -13 -13 -13 -13 -13 -14
-12 -12 -12 -12 -12 -12 -12 -12 -12 -12 -12 -12 -12 -12 -12 -12 -12 -12 -12 -12 -12 -12 -12 -12 -12 -12 -12 -13 -13 -13 -13 -13 -13 -13 -13 -13 -13 -13 -13 -13 -14 -14 -14
-12 -12 -12 -12 -12 -12 -12 -12 -12 -12 -12 -13 -13 -13 -13 -12 -12 -12 -13 -13 -13 -13 -13 -13 -13 -13 -13 -13 -13 -13 -13 -13 -13 -13 -13 -13 -13 -13 -14 -14 -13 -14 -14
-12 -13 -12 -12 -12 -12 -13 -13 -13 -13 -13 -13 -13 -13 -13 -13 -13 -13 -13 -13 -13 -13 -13 -13 -13 -13 -13 -13 -13 -13 -14 -14 -13 -13 -13 -13 -14 -14 -14 -14 -14 -14 -14
-12 -12 -12 -12 -12 -12 -13 -13 -13 -13 -13 -13 -13 -13 -13 -13 -13 -13 -13 -13 -13 -13 -13 -13 -13 -13 -13 -13 -14 -14 -14 -14 -14 -14 -14 -14 -14 -14 -14 -13 -14 -14 -14
-12 -12 -13 -13 -12 -12 -12 -13 -13 -13 -13 -13 -13 -13 -13 -13 -13 -13 -13 -13 -13 -13 -13 -13 -13 -13 -13 -13 -14 -14 -14 -14 -14 -14 -14 -14 -14 -13 -13 -14 -14 -14 -14
-12 -12 -12 -13 -13 -13 -13 -13 -12 -13 -13 -13 -13 -13 -13 -13 -13 -13 -13 -13 -13 -13 -13 -13 -13 -13 -13 -13 -13 -14 -14 -14 -14 -14 -14 -13 -13 -14 -13 -14 -14 -14 -14
-13 -12 -12 -13 -13 -13 -13 -12 -12 -12 -13 -13 -12 -12 -13 -13 -13 -13 -13 -13 -13 -13 -13 -13 -13 -13 -13 -13 -13 -13 -14 -14 -14 -14 -14 -14 -14 -14 -14 -14 -14 -14 -14
-13 -13 -13 -13 -13 -13 -13 -13 -12 -12 -12 -12 -13 -13 -13 -13 -13 -13 -13 -13 -13 -13 -13 -13 -13 -13 -13 -13 -13 -13 -13 -13 -13 -13 -13 -13 -14 -14 -14 -14 -14 -14 -15
-13 -13 -13 -13 -13 -13 -13 -13 -13 -13 -13 -12 -12 -12 -12 -13 -13 -12 -13 -13 -13 -13 -13 -13 -13 -13 -13 -13 -13 -13 -13 -13 -13 -13 -13 -13 -13 -14 -14 -14 -14 -15 -15
-13 -13 -13 -13 -13 -13 -13 -13 -13 -13 -13 -13 -13 -13 -12 -12 -12 -12 -12 -12 -13 -13 -13 -13 -13 -13 -13 -13 -13 -13 -13 -13 -13 -14 -14 -14 -14 -14 -14 -14 -14 -14 -14
Height
5721 5720 5719 5717 5717 5715 5713 5711 5709 5708 5705 5702 5700 5699 5697 5695 5694 5692 5690 5688 5686 5685 5684 5683 5683 5683 5684 5686 5687 5689 5692 5696 5700 5705 5710 5713 5717 5721 5724 5733 5739 5741 5749
5718 5717 5715 5714 5713 5711 5709 5707 5706 5705 5703 5700 5698 5697 5697 5695 5693 5690 5689 5687 5685 5683 5682 5682 5681 5683 5684 5685 5687 5689 5692 5696 5699 5704 5710 5715 5720 5724 5729 5734 5739 5742 5748
5715 5713 5712 5711 5709 5707 5705 5704 5703 5702 5700 5698 5696 5697 5697 5695 5692 5690 5688 5686 5684 5682 5681 5680 5680 5680 5683 5684 5686 5688 5691 5696 5700 5704 5709 5714 5719 5724 5728 5733 5738 5742 5747
5711 5710 5709 5708 5705 5703 5702 5702 5701 5699 5697 5695 5695 5696 5696 5695 5693 5691 5688 5687 5686 5684 5682 5681 5679 5679 5681 5684 5686 5689 5692 5696 5702 5706 5710 5714 5720 5724 5728 5733 5739 5743 5747
5709 5708 5706 5704 5702 5699 5699 5698 5697 5696 5695 5693 5694 5695 5695 5695 5694 5692 5689 5689 5688 5685 5683 5682 5680 5679 5681 5684 5687 5690 5694 5698 5703 5707 5713 5718 5722 5726 5730 5734 5739 5743 5747
5706 5705 5703 5701 5700 5698 5696 5696 5694 5694 5692 5691 5692 5693 5694 5694 5695 5693 5691 5690 5689 5687 5684 5683 5682 5682 5682 5685 5689 5692 5696 5700 5704 5709 5714 5718 5723 5726 5730 5734 5740 5744 5748
5704 5703 5701 5701 5699 5696 5694 5693 5692 5691 5690 5689 5691 5692 5693 5694 5694 5695 5693 5691 5690 5688 5686 5685 5684 5684 5685 5686 5690 5693 5697 5701 5705 5708 5711 5717 5722 5726 5730 5734 5738 5744 5749
5702 5701 5700 5699 5697 5695 5693 5691 5690 5689 5688 5688 5689 5691 5692 5694 5695 5696 5695 5693 5692 5690 5689 5688 5687 5687 5687 5688 5691 5695 5699 5702 5706 5711 5715 5718 5721 5726 5730 5734 5739 5744 5748
5701 5700 5699 5698 5696 5694 5693 5690 5687 5686 5685 5686 5687 5689 5692 5694 5695 5696 5696 5695 5694 5693 5691 5691 5691 5690 5690 5691 5694 5697 5701 5705 5708 5712 5715 5718 5724 5728 5732 5737 5742 5746 5750
5700 5699 5698 5697 5695 5694 5692 5689 5686 5684 5682 5683 5685 5688 5692 5694 5696 5697 5697 5697 5696 5696 5695 5694 5695 5695 5697 5697 5699 5700 5703 5707 5711 5715 5718 5723 5727 5731 5735 5739 5744 5749 5752
5700 5699 5698 5697 5696 5693 5691 5688 5686 5684 5682 5683 5685 5689 5692 5694 5696 5697 5698 5698 5698 5698 5699 5699 5700 5701 5702 5703 5705 5706 5708 5712 5715 5718 5723 5726 5730 5734 5738 5743 5746 5749 5753
5700 5699 5698 5697 5696 5694 5691 5688 5687 5686 5685 5685 5687 5690 5693 5695 5696 5697 5698 5698 5700 5700 5701 5701 5702 5704 5706 5707 5708 5710 5712 5715 5719 5722 5726 5730 5734 5738 5742 5745 5750 5752 5756
5699 5699 5699 5698 5697 5695 5692 5690 5689 5688 5687 5687 5689 5692 5695 5696 5697 5698 5699 5699 5699 5700 5701 5703 5705 5706 5707 5709 5712 5714 5716 5719 5723 5728 5731 5734 5738 5741 5744 5748 5752 5755 5757
5699 5699 5700 5699 5698 5697 5696 5693 5691 5690 5690 5691 5691 5694 5697 5699 5699 5700 5701 5700 5700 5700 5702 5704 5707 5709 5711 5713 5716 5719 5721 5725 5728 5733 5736 5738 5741 5744 5749 5752 5755 5757 5759
5698 5700 5701 5700 5700 5700 5700 5699 5698 5696 5695 5693 5693 5695 5698 5701 5702 5704 5704 5704 5703 5704 5706 5708 5710 5712 5715 5719 5721 5724 5728 5731 5734 5737 5740 5743 5746 5749 5752 5754 5756 5758 5759
5699 5701 5702 5702 5702 5703 5703 5703 5703 5702 5701 5700 5697 5699 5702 5705 5706 5708 5710 5710 5711 5711 5711 5712 5714 5717 5719 5722 5725 5728 5731 5734 5738 5742 5745 5747 5749 5752 5754 5756 5757 5758 5758
5700 5702 5704 5704 5705 5706 5706 5707 5707 5708 5707 5708 5709 5709 5710 5711 5712 5713 5714 5716 5717 5718 5719 5721 5723 5724 5725 5728 5731 5734 5736 5739 5743 5746 5748 5750 5753 5754 5755 5756 5757 5758 5758
5700 5702 5704 5706 5707 5708 5709 5709 5710 5711 5712 5713 5715 5715 5716 5717 5718 5718 5719 5719 5720 5722 5724 5726 5727 5729 5731 5733 5736 5738 5741 5744 5746 5748 5750 5752 5753 5754 5755 5756 5756 5756 5755
5698 5701 5704 5706 5709 5710 5711 5712 5713 5714 5716 5718 5718 5720 5721 5722 5723 5724 5724 5724 5725 5726 5727 5729 5731 5732 5734 5736 5739 5741 5744 5746 5747 5749 5751 5752 5753 5753 5754 5753 5753 5753 5753
5698 5701 5703 5706 5708 5710 5713 5714 5715 5717 5719 5721 5722 5723 5724 5725 5726 5726 5727 5728 5729 5730 5731 5732 5734 5736 5737 5739 5741 5743 5745 5747 5748 5749 5749 5750 5751 5752 5752 5752 5752 5752 5751
5697 5699 5701 5703 5707 5709 5712 5714 5716 5718 5720 5722 5723 5725 5725 5727 5728 5729 5730 5730 5731 5732 5733 5735 5736 5737 5739 5740 5742 5743 5744 5745 5746 5747 5748 5749 5749 5749 5749 5749 5748 5747 5745
5694 5696 5698 5700 5704 5707 5710 5712 5714 5716 5719 5721 5723 5725 5727 5728 5729 5729 5730 5731 5732 5733 5734 5735 5736 5737 5738 5739 5739 5740 5742 5742 5743 5744 5744 5744 5744 5744 5744 5744 5743 5741 5739
5692 5695 5696 5694 5698 5703 5706 5709 5712 5713 5715 5718 5721 5723 5724 5726 5727 5728 5729 5730 5731 5732 5733 5734 5735 5736 5736 5737 5738 5738 5739 5739 5739 5739 5740 5740 5740 5740 5739 5738 5736 5735 5733
5689 5692 5694 5694 5696 5697 5700 5703 5706 5709 5711 5713 5715 5718 5720 5722 5723 5725 5726 5727 5729 5730 5731 5732 5732 5732 5733 5733 5734 5735 5735 5734 5734 5734 5735 5735 5734 5733 5733 5732 5731 5729 5727
5681 5686 5689 5691 5694 5696 5696 5699 5701 5704 5706 5708 5710 5712 5713 5715 5717 5718 5720 5721 5723 5724 5725 5727 5727 5728 5728 5728 5728 5728 5728 5728 5728 5728 5727 5728 5728 5726 5725 5724 5722 5719 5717
5673 5676 5680 5685 5689 5691 5693 5695 5697 5699 5701 5703 5704 5705 5707 5708 5710 5712 5714 5715 5716 5716 5717 5718 5720 5720 5721 5722 5722 5723 5723 5722 5721 5720 5719 5718 5718 5717 5716 5715 5713 5711 5709
Wind_Speed
17 17 17 14 15 18 16 12 12 14 13 10 8 8 6 5 6 10 8 8 7 7 8 8 7 7 10 10 9 13 13 18 21 21 21 22 14 20 19 23 23 18 18
17 17 15 14 16 17 15 12 14 17 15 10 6 4 4 6 8 9 10 12 7 8 7 4 10 10 9 13 11 12 18 19 20 24 20 21 20 20 21 23 24 23 19
16 15 14 15 17 14 14 13 15 16 13 8 6 5 3 6 8 10 6 5 7 6 5 5 5 13 14 11 8 14 16 19 20 23 25 24 23 21 23 23 27 14 17
16 13 13 15 16 16 15 13 11 12 12 7 7 5 3 5 5 7 2 6 9 9 5 4 1 6 20 13 10 12 18 19 23 25 23 25 24 24 24 27 27 17 17
13 11 14 15 12 12 16 14 11 10 9 7 7 5 5 4 4 4 4 2 5 6 6 6 8 4 14 14 15 15 17 19 22 22 22 20 22 20 18 20 22 17 15
11 11 11 8 8 8 6 7 8 7 9 7 6 8 4 3 3 5 3 2 2 7 8 7 8 8 9 15 17 17 18 21 23 22 22 21 20 19 18 19 17 15 16
9 9 6 5 5 6 6 6 6 8 7 5 4 8 4 5 2 2 5 2 3 7 8 9 7 8 7 9 17 19 22 22 24 27 27 22 20 19 20 21 21 17 14
8 7 6 7 5 5 7 6 7 7 5 3 6 9 7 8 5 4 6 3 5 10 10 10 8 8 10 13 19 23 24 25 24 21 21 18 24 26 30 25 21 25 23
5 6 6 5 3 4 6 7 5 4 6 7 9 11 9 11 5 3 4 6 5 8 11 13 14 16 17 15 19 23 24 24 21 22 22 28 30 25 26 26 26 25 19
3 5 4 3 3 4 6 7 3 1 5 12 15 15 12 9 5 5 3 6 5 6 9 11 15 19 19 18 18 18 20 23 24 26 25 26 28 26 27 29 27 21 18
2 3 3 3 4 7 7 7 3 7 8 13 18 18 13 8 6 6 4 7 7 8 8 12 13 12 14 16 18 19 21 20 21 24 22 23 26 27 27 25 19 18 24
1 2 3 1 4 8 8 7 8 8 9 12 14 15 12 10 8 8 5 5 8 7 6 9 10 11 12 13 14 19 23 21 20 21 26 29 29 27 21 20 25 23 18
2 1 2 2 4 7 8 7 4 6 9 11 11 15 15 12 11 8 8 4 5 9 10 14 13 16 14 13 14 17 19 18 21 24 25 27 24 20 24 23 19 15 12
3 2 3 5 7 9 12 14 13 13 10 9 17 18 14 13 10 9 4 6 8 12 13 16 15 13 12 15 18 16 19 23 26 24 22 22 23 23 21 17 14 14 10
5 6 7 9 11 11 13 15 19 19 20 12 13 17 17 16 13 14 14 14 15 13 13 14 15 16 18 20 19 17 15 19 14 23 24 22 22 18 17 15 13 9 6
9 9 11 15 17 17 18 19 20 21 21 22 18 21 21 26 25 22 19 20 21 21 19 16 13 14 14 15 16 19 19 19 23 21 20 19 19 16 13 9 7 5 2
13 13 15 15 14 14 14 13 13 15 17 18 21 23 23 22 21 20 20 19 19 18 19 19 19 20 21 22 22 22 21 19 19 19 17 16 12 7 5 4 3 1 1
16 15 16 15 13 12 11 12 13 13 13 18 17 17 16 15 15 15 16 16 15 15 15 16 18 18 17 17 16 16 16 18 17 14 12 9 7 5 3 1 2 4 6
19 18 17 15 12 10 10 11 13 15 14 14 15 15 15 14 14 14 15 13 13 14 15 15 15 15 16 15 14 15 15 14 11 9 7 4 3 3 4 5 6 8 11
19 19 18 17 15 12 10 9 8 9 10 10 10 9 9 9 8 9 10 12 12 10 10 11 13 13 13 13 12 10 8 6 5 5 5 6 6 6 7 7 9 12 14
20 20 19 17 16 15 12 11 9 8 7 7 7 8 7 5 5 6 7 7 8 8 7 7 8 7 5 3 2 1 1 1 2 3 5 6 6 9 12 13 16 18 20
21 21 21 19 17 17 17 15 14 12 11 10 10 9 8 7 6 5 6 8 7 6 5 5 5 5 5 5 5 6 6 6 6 8 8 8 9 12 15 18 20 21 23
21 22 24 23 21 20 19 19 19 18 16 15 13 13 12 13 13 12 11 10 9 10 9 10 10 10 11 12 12 13 13 13 14 13 15 16 18 19 21 22 25 26 27
22 22 22 21 23 23 22 22 22 21 21 20 19 17 17 17 17 16 16 16 15 15 14 14 15 16 16 17 18 18 19 21 21 20 21 21 23 25 26 26 27 28 29
29 25 22 21 21 22 23 24 24 23 23 23 23 23 23 22 22 22 21 21 20 20 20 21 22 22 22 23 23 23 24 25 26 26 27 27 27 27 28 28 28 29 31
31 29 30 28 25 24 23 22 22 23 25 27 27 27 26 24 25 25 26 26 26 26 26 26 26 27 28 28 27 27 27 28 29 30 31 31 30 27 27 30 32 31 31
Wind_Direction
284 292 292 299 303 306 301 290 295 323 332 312 299 296 293 317 328 319 317 323 311 300 317 271 267 216 224 205 193 201 182 180 178 176 176 171 193 171 166 168 172 182 182
288 294 289 300 301 301 293 280 287 308 322 307 290 264 298 312 304 301 304 311 313 290 272 297 269 221 206 202 199 195 186 182 178 179 180 185 170 168 173 178 180 191 170
292 290 292 299 303 297 291 280 289 299 318 306 255 239 313 317 314 330 335 6 6 340 290 241 278 206 201 186 201 193 185 177 175 175 185 185 181 173 173 177 170 188 195
295 288 296 299 296 291 281 272 290 297 316 312 245 237 251 300 340 1 31 57 44 64 95 89 55 222 204 183 180 173 172 173 171 174 180 181 176 178 181 176 168 167 171
291 292 300 304 305 292 270 265 280 297 303 318 244 222 239 265 303 24 42 49 47 38 59 61 32 156 187 195 168 168 165 167 169 170 170 179 179 178 173 181 191 199 188
285 298 312 314 294 286 291 267 272 287 299 325 231 224 223 194 316 11 55 95 41 42 57 52 69 92 144 170 168 165 159 160 159 159 163 174 175 178 185 184 181 191 191
284 305 310 300 303 323 298 269 269 268 290 323 194 213 193 181 247 14 83 91 60 29 54 60 82 119 126 162 174 168 165 166 170 167 168 173 181 179 175 166 167 179 193
290 305 294 292 314 329 320 312 293 280 267 275 177 184 177 175 193 82 67 74 54 31 71 84 99 89 132 143 166 171 169 171 172 181 168 164 164 165 166 171 171 172 169
290 289 288 303 355 327 336 339 312 243 220 214 178 180 179 192 192 195 101 83 70 33 82 93 94 81 118 137 155 164 171 179 173 163 158 158 161 162 162 165 167 164 162
280 280 292 320 347 352 1 343 329 346 217 196 169 173 176 187 214 175 141 103 91 79 65 109 96 90 101 107 131 147 159 161 161 158 158 162 163 163 162 161 154 159 174
274 279 295 302 344 357 351 336 80 82 125 163 160 164 172 175 181 166 167 125 124 99 81 85 112 112 110 111 121 136 144 145 152 156 161 162 160 150 149 151 159 164 156
256 274 269 321 12 11 14 82 102 101 123 131 154 165 175 168 172 161 161 145 154 148 125 125 113 129 129 127 125 138 140 138 145 150 154 153 145 143 150 147 147 147 149
231 283 236 97 66 45 48 64 100 101 121 149 147 149 151 149 139 146 141 132 172 171 158 152 134 133 146 148 146 147 142 140 142 152 160 158 154 158 149 145 149 146 144
196 147 143 114 95 85 68 73 92 104 113 139 144 145 150 136 122 120 115 113 135 146 148 153 145 133 137 143 149 153 158 151 154 162 163 159 154 143 143 147 146 147 148
162 143 133 120 113 106 96 87 86 88 78 83 145 154 143 131 113 105 98 97 111 119 137 145 146 142 138 141 142 138 148 156 158 150 148 147 142 142 144 146 151 151 142
157 144 136 125 116 109 102 97 93 90 86 78 95 129 122 117 115 112 104 99 98 95 91 98 138 149 147 144 138 137 139 149 147 145 149 150 152 146 140 134 130 136 146
162 151 148 140 129 119 114 108 101 98 97 94 99 107 111 113 114 111 110 109 109 112 113 113 115 117 122 130 137 141 143 147 148 149 152 151 142 137 141 138 124 192 281
167 164 161 154 145 130 121 115 111 104 103 107 107 106 105 109 114 115 116 117 119 122 122 124 126 127 130 135 140 146 153 154 151 151 149 154 160 159 138 80 298 280 276
172 174 173 172 162 147 129 118 113 111 113 112 108 105 103 103 100 100 99 105 120 122 124 127 125 124 126 128 134 142 147 153 160 166 168 180 197 221 246 261 278 292 299
179 179 181 180 181 177 165 147 131 126 129 132 128 125 122 120 109 102 99 106 110 119 130 131 126 126 129 133 139 145 153 170 192 215 227 242 261 286 289 285 283 287 290
193 184 182 187 191 194 196 195 184 177 171 161 150 141 137 136 145 143 132 123 119 120 131 143 147 150 141 128 127 139 125 295 287 289 286 289 296 290 287 286 283 283 286
201 198 187 187 197 199 203 207 208 204 207 207 200 195 184 185 192 182 180 186 183 183 184 186 196 210 229 244 248 252 256 254 262 271 276 277 275 280 285 288 288 288 290
212 211 207 189 195 203 207 210 211 212 216 220 220 220 218 216 216 220 227 226 219 217 218 221 228 234 238 244 250 255 259 260 263 271 275 272 271 273 278 284 287 289 292
219 218 219 213 209 204 207 215 220 222 221 219 223 229 233 236 236 234 234 236 240 240 234 235 238 244 250 251 249 249 252 255 257 258 258 258 260 264 269 273 278 282 286
220 219 223 227 227 225 222 222 225 230 233 234 232 228 227 231 236 237 237 239 239 242 245 245 243 244 248 251 254 256 256 257 259 262 266 268 270 275 279 281 284 287 290
225 226 228 225 230 234 235 234 236 238 239 239 240 241 241 237 237 240 241 240 240 240 242 244 247 252 256 257 255 254 256 258 262 264 268 273 275 277 279 284 288 287 286